Location: Ash Observatory
(39.7321°N, 75.2004°W)
Time: 07:49:24
(UTC-04:00)

ISS - Pass Details

Date: 25 May 2019
Orbit: 408 x 418 km, 51.6° (Epoch: 19 June)

Event Time Altitude Azimuth Distance (km) Brightness Sun altitude
Rises 21:57:53 0° 302° (WNW) 2,354 1.6 -16.1°
Reaches altitude 10° 22:01:25 10° 342° (NNW) 1,495 0.1 -16.6°
Maximum altitude 22:02:21 11° 358° (N) 1,442 -0.3 -16.7°
Drops below altitude 10° 22:03:19 10° 15° (NNE) 1,497 -0.5 -16.9°
Sets 22:06:51 0° 54° (NE) 2,364 0.0 -17.3°
